RH
50 49 50 49 52 59 71 67 76 59 63 57 58 59 60 61 64 63 63 64 65 69 71 72 71 69 70 73 68 65 61 61 60 62 65 64 63 67 75 89 97 98 97 96
54 56 59 58 57 64 65 65 67 66 65 56 55 64 67 63 66 67 71 74 76 74 74 76 76 72 70 68 70 68 61 66 68 62 63 68 76 84 92 97 96 95 92 91
62 61 64 54 52 63 62 60 59 61 54 56 63 69 68 66 69 72 75 77 79 80 76 72 73 73 73 68 62 61 60 58 68 69 67 74 81 87 91 91 89 88 85 79
77 75 84 54 55 61 61 60 57 59 61 67 69 70 74 76 74 76 78 80 80 75 76 77 79 73 66 65 61 59 58 63 71 75 69 77 83 82 77 73 70 68 66 64
82 86 77 61 58 60 63 61 60 64 70 72 75 73 77 78 77 84 88 83 80 80 78 79 72 65 65 63 62 64 64 61 64 65 70 74 68 64 61 59 59 56 54 50
90 95 91 63 66 67 70 74 73 75 79 81 80 79 76 82 86 89 78 76 75 75 74 71 63 66 67 68 65 65 69 69 71 74 65 58 55 52 51 47 42 39 39 42
90 96 82 66 70 74 85 79 78 82 81 79 85 89 91 89 93 84 74 69 75 73 70 62 63 64 66 65 66 69 75 76 78 67 59 52 47 41 36 37 38 41 42 46
90 93 85 72 79 85 80 75 79 82 81 88 94 96 91 86 78 69 64 69 75 68 60 59 64 63 68 74 77 77 78 80 71 62 50 41 34 37 39 40 46 47 50 53
85 85 73 76 86 85 83 84 84 84 90 98 95 96 88 71 61 59 61 67 73 62 55 56 54 53 54 61 70 78 80 75 62 45 37 37 38 39 44 53 58 63 63 59
88 74 76 83 85 87 89 90 87 87 94 91 89 86 74 63 56 54 54 56 58 55 51 45 49 54 59 66 77 82 76 62 40 37 40 40 40 52 61 67 65 63 64 64
86 77 80 88 89 89 90 84 87 88 88 82 68 58 54 53 54 51 53 50 45 47 44 46 53 61 70 76 82 80 64 45 37 40 42 40 51 64 69 71 72 72 74 73
81 88 95 92 88 87 84 77 72 63 62 58 54 58 57 55 48 44 43 44 42 43 46 53 62 71 81 85 82 65 45 38 37 41 45 49 59 66 76 80 84 84 80 76
88 89 84 81 80 80 74 62 60 56 55 54 46 49 51 45 41 43 47 52 43 44 49 57 62 77 85 83 63 45 38 36 40 44 49 56 64 66 69 85 87 80 78 76
82 77 74 73 74 65 63 58 54 51 48 47 43 42 43 44 46 46 44 41 45 49 55 55 71 83 82 62 39 32 33 38 42 47 54 62 67 71 82 83 81 83 81 82
71 64 64 64 60 55 47 46 43 41 42 39 39 43 47 47 45 39 36 42 50 55 55 67 82 81 63 39 33 34 36 38 44 51 57 64 71 82 85 83 85 90 88 76
61 60 57 54 50 47 49 48 49 45 40 41 42 42 41 42 42 41 45 51 55 61 68 80 82 68 41 31 32 34 37 44 49 53 60 67 78 82 86 84 89 94 86 78
66 57 52 48 48 48 46 43 43 41 40 39 37 39 40 41 42 45 54 60 69 77 89 85 73 46 32 28 34 43 45 48 51 54 61 72 78 83 83 83 92 90 79 80
57 53 51 48 47 45 42 44 47 40 37 40 45 44 43 49 54 57 67 75 83 95 90 78 55 36 31 33 42 46 50 51 53 57 65 72 79 81 78 80 91 85 76 84
53 45 43 44 44 45 47 47 43 41 42 43 42 47 54 63 67 71 79 87 98 92 82 61 39 36 35 38 41 46 49 55 57 61 65 70 77 79 76 77 90 82 78 88
42 44 43 43 44 40 39 41 44 42 39 44 49 53 61 74 76 80 89 98 96 88 68 47 37 38 36 38 42 48 49 55 61 64 67 71 75 78 74 75 83 88 81 85
42 39 37 38 36 36 39 44 45 44 46 52 59 61 71 79 84 89 96 95 94 81 59 48 42 38 36 39 44 51 51 55 64 67 70 72 75 78 77 74 77 87 82 78
42 41 36 37 40 39 37 41 48 52 53 55 62 72 77 76 80 91 92 91 87 72 54 49 42 37 40 41 48 54 52 55 63 71 74 76 76 76 78 76 74 78 83 76
38 39 41 41 42 43 43 49 52 55 59 64 68 74 76 68 82 92 90 90 80 65 54 47 43 44 43 45 53 55 53 59 64 72 78 78 79 80 79 78 77 75 74 72
43 43 44 46 49 50 49 50 57 62 69 71 74 78 72 71 89 90 91 87 77 64 53 51 45 46 47 51 54 52 57 61 65 73 78 80 82 82 80 81 79 79 76 73
47 47 50 53 53 53 53 54 57 63 70 72 74 68 67 79 89 90 89 84 79 70 62 55 52 50 52 56 52 54 57 61 67 75 76 77 78 80 81 82 81 82 81 79
52 52 52 54 57 59 58 62 65 68 71 72 75 74 74 86 90 91 90 89 83 72 67 60 57 56 54 52 53 55 56 62 68 72 72 73 75 77 79 81 82 82 85 84
53 54 52 53 59 60 63 73 75 73 79 81 79 78 74 83 91 93 95 93 88 78 71 62 53 50 52 56 60 59 60 63 67 70 74 75 76 78 81 82 83 83 84 88